Flag for Netherlands Weather past 2 weeks in Rotterdam, Netherlands

Now
66 °F

Mild.


Feels Like: 66 °F
Forecast: 68 / 83 °F
Wind: 3 mph from East

Location: Rotterdam Zestienhoven Airport

Current Time: Jul 1, 2015 at 7:24:18 AM

Latest Report: Jul 1, 2015 at 6:55 AM


Visibility: N/A

Pressure: 30.04 "Hg

Humidity: 68%

Dew point: 55 °F

Location of RotterdamLocation

Historic Weather in Rotterdam — Graph

°F

Rotterdam temperature yesterday

Maximum temperature yesterday: 82 °F (at 5:55 PM)
Minimum temperature yesterday: 52 °F (at 3:25 AM)
Average temperature yesterday: 69 °F

Past Weeks' High & Low Weather Summary

 TemperatureHumidityPressure
High82 °F (Jun 30, 5:55 PM)100% (Jun 16, 5:55 AM)30.30 "Hg (Jun 16, 5:55 AM)
Low43 °F (Jun 16, 5:25 AM)37% (Jun 30, 3:55 PM)29.71 "Hg (Jun 22, 5:25 PM)
Average61 °F74%30.08 "Hg
* Reported Jun 16 5:25 AM — Jul 1 5:55 AM, Rotterdam, Weather by CustomWeather, © 2015

Note: Actual official high and low records may vary slightly from our data, if they occured in-between our weather recording intervals... More about our weather records

Advertising

Rotterdam weather history for previous 24 hours

 ConditionsComfort  
Time TempWeatherWind HumidityBarometerVisibility
5:55 AM
Wed, Jul 1
64 °FMild.7 mph68%30.04 "HgN/A
5:25 AM64 °FMild.6 mph68%30.04 "HgN/A
4:55 AM64 °FMild.6 mph68%30.04 "HgN/A
4:25 AM63 °FMild.5 mph73%30.07 "HgN/A
3:55 AM64 °FMild.7 mph68%30.07 "HgN/A
3:25 AM66 °FMild.6 mph64%30.07 "HgN/A
2:55 AM66 °FClear.6 mph64%30.07 "HgN/A
2:25 AM68 °FMild.9 mph60%30.07 "HgN/A
1:55 AM68 °FClear.8 mph60%30.07 "HgN/A
1:25 AM70 °FMild.9 mph57%30.07 "HgN/A
12:55 AM70 °FMild.10 mph57%30.07 "HgN/A
12:25 AM72 °FClear.9 mph53%30.07 "HgN/A
11:55 PM
Tue, Jun 30
72 °FMild.9 mph53%30.07 "HgN/A
11:25 PM72 °FMild.10 mph53%30.07 "HgN/A
10:55 PM73 °FMild.9 mph50%30.07 "HgN/A
10:25 PM75 °FMild.10 mph47%30.07 "HgN/A
9:55 PM75 °FMild.9 mph47%30.07 "HgN/A
9:25 PM77 °FClear.9 mph47%30.07 "HgN/A
8:55 PM77 °FWarm.10 mph44%30.07 "HgN/A
8:25 PM79 °FClear.9 mph45%30.07 "HgN/A
7:55 PM81 °FClear.12 mph42%30.07 "HgN/A
6:55 PM81 °FClear.9 mph42%30.09 "HgN/A
6:25 PM81 °FPleasantly warm.9 mph39%30.09 "HgN/A
5:55 PM82 °FPleasantly warm.8 mph37%30.09 "HgN/A
4:55 PM81 °FClear.7 mph42%30.09 "HgN/A
4:25 PM81 °FClear.9 mph39%30.12 "HgN/A
3:55 PM81 °FClear.8 mph37%30.12 "HgN/A
2:55 PM79 °FWarm.9 mph42%30.12 "HgN/A
2:25 PM79 °FClear.9 mph42%30.15 "HgN/A
1:55 PM79 °FWarm.8 mph42%30.15 "HgN/A
1:25 PM77 °FClear.9 mph42%30.15 "HgN/A
12:55 PM77 °FClear.9 mph44%30.15 "HgN/A
12:25 PM75 °FClear.8 mph47%30.15 "HgN/A
11:55 AM75 °FMild.7 mph50%30.18 "HgN/A
11:25 AM73 °FMild.8 mph53%30.18 "HgN/A
10:55 AM73 °FClear.7 mph53%30.18 "HgN/A
10:25 AM72 °FMild.7 mph57%30.18 "HgN/A
9:55 AM72 °FClear.7 mph57%30.18 "HgN/A
9:25 AM70 °FMild.7 mph60%30.18 "HgN/A
8:55 AM68 °FMild.5 mph64%30.18 "HgN/A
8:25 AM66 °FMild.5 mph73%30.18 "HgN/A
7:55 AM64 °FMild.2 mph78%30.18 "HgN/A
7:25 AM61 °FCool.2 mph88%30.18 "HgN/A
Weather by CustomWeather, © 2015

See weather overviewHow to use our weather pages